Tracking 28052 objects as of 22-Sep-2023
HD Live streaming from Space Station
objects crossing your sky now

NOAA 16 DEB

Track NOAA 16 DEB now!
10-day predictions


NORAD ID: 41539
Int'l Code: 2000-055NP
Perigee: 790.6 km
Apogee: 830.9 km
Inclination: 98.8 °
Period: 100.9 minutes
Semi major axis: 7181 km
RCS: Unknown
Launch date: September 21, 2000
Source: United States (US)
Launch site: AIR FORCE WESTERN TEST RANGE (AFWTR)

Note: This is SATELLITE DEBRIS
Your satellite tracking list
Your tracking list is empty




NASA's NSSDC Master Catalog

Two Line Element Set (TLE):
1 41539U 00055NP  23264.07632623  .00007500  00000-0  31184-2 0  9999
2 41539  98.7984   4.4493 0028015 180.5243 179.5912 14.26452736394710
Source of the keplerian elements: AFSPC